Location: *
(45.9500°N, 9.0833°E)
Time: 21:11:35
(UTC+00:00)

Vanguard 2 Rocket - Pass Details

Date: 13 June 2021
Orbit: 555 x 3325 km, 32.9° (Epoch: 30 July)

Event Time Altitude Azimuth Distance (km) Brightness Sun altitude
Rises 23:44:11 0° 262° (W) 6,113 11.0 -20.6°
Reaches altitude 10° 23:49:18 10° 255° (WSW) 4,624 10.3 -20.5°
Maximum altitude 23:59:13 33° 198° (SSW) 2,235 8.3 -20.3°
Enters shadow 00:00:46 31° 179° (S) 2,164 8.2 -20.3°
Drops below altitude 10° 00:05:24 10° 137° (SE) 2,834 - -20.1°
Sets 00:07:47 0° 126° (SE) 3,519 - -20.1°
